date:2026-07-26T15:32:36+00:00
validtle:1
satid:56745
launchyear:2023
epoch:26207.30499439
epochday:207
tleage:0
tleclassification:U
active:1
name:SNIPE
meananomly:173.7180
meanmotion:15.4876
rightascension:0.0000
declination:0.0000
semimajoraxis:6798.5005633467
altitudeatperigee:417
altitudeatapogee:423
inclination:97.5208
eccentricity:0.0004292
argumentofperigree:186.4016
nickname:SNIPE
idesg:23072C  
cosparid:2023-072C
altkm:426.39048085941
velkms:7.6539337177602
velkmh:27554
onumepoch:17629
onumnow:273035.66
otype:1
otypedesc:Low Earth Orbit (LEO)
status:1
timestamp:2026-07-26T07:19:12+00:00
nowjuliandate:2461248.1476456
nowepochdate:26207.6476388889
TLE:
SNIPE 2
1 56745U 23072C   26207.30499439  .00031019  00000+0  57828-3 0  9995
2 56745  97.5208  57.9156 0004292 186.4016 173.7180 15.48756883176293